Zurück zum Katalog

STARLINK-35912

AktivKommunikationVLEO
NORAD 66882·PAYLOAD·🇺🇸 United States

Gestartet Dec 4, 2025 von Vandenberg Space Force Base

Loading…

Nächste Überflüge (nächste 24 Stunden)

TLE

AktuellSource: CelesTrak SupGP

Epoche: Sep 14, 2026, 15:55 UTC

1 66882C 25283E   26257.66368056  .00009792  00000+0  28940-3 0  2571
2 66882  53.1582 222.6708 0001359  96.3334 118.5855 15.34374570    12

Verfolge STARLINK-35912 in Echtzeit mit AllMySat

Download on the App Store